ICEYE-X53

导读

ICEYE-X53是芬兰商业合成孔径雷达卫星运营商Iceye公司的卫星,计划于2025年6月23日发射,具体发射国家暂未公布。该卫星隶属于Iceye的合成孔径雷达卫星星座,依托Iceye先进的卫星技术,它将提供高分辨率的全天候地球观测数据,可服务于灾害监测、资源勘探、国家安全等多个领域,助力拓展全球商业遥感服务能力。

Basic Information
目录编号:
64584
目录名称:
ICEYE-X53
国际标识:
2025-135BJ
轨道中心:
EARTH
卫星名称:
ICEYE-X53
卫星全名:
ICEYE-X53
卫星状态:
在轨 (已飞行445 天)
发射日期:
2025-06-23 UTC
国别 :
(FI)
星等 :
--
This satellite is enrolled in the Space Conjunction Data Service (SCDS) and the current flight risk assessment level is: No High Risk
Orbit Information
数据来源 国际轨道数据 AOE轨道数据
星历时间 2026-09-11T07:02:06+0800
10小时前
查看轨道信息
2026-09-07T03:00:00+0800
4天前
查看轨道信息
半长轴 6942.256km 6942.222km
偏心率 0.0001647 0.0001851
轨道倾角 97.732° 97.733°
近地点辐角 132.698° 129.196°
升交点赤经 10.328° 6.182°
平近点角 227.438° 43.633°
近地点 562.975km 562.799km
远地点 565.263km 565.371km
周期 95.942分钟 95.942分钟
每日圈数 15.009004 15.009115
Detailed Information
使用方式:
暂无
2D Orbit Map
3D Orbit Map
Orbit Altitude Analysis Chart
Orbit Inclination Analysis Chart
Orbit Comprehensive Analysis Chart
View Comprehensive Chart
Conjunction Data List
Event ID Objects TCA Miss Dist (km) Collision Risk Probability Collision Risk Index (CRI) Action
CDM_260912-235703-722306-458423
2026-09-12T
23:57:56+0000
2.340 km
极远距离
2.013386E-6 低风险 0.41
Miss Distance Evolution Trend with All Objects
Collision Probability Evolution Trend with All Objects